Terug naar catalogus

COSMOS 2251 DEB

LostLEO
NORAD 37494·DEBRIS·🇷🇺 Russia

Gelanceerd Jun 16, 1993 vanaf Plesetsk Cosmodrome

Loading…

Volgende Passages (komende 24 uur)

TLE

VerouderdSource: Space-Track

Epoch: May 25, 2024, 01:21 UTC

1 37494U 93036BLX 24146.05648753  .00007974  00000-0  16953-2 0  9996
2 37494  74.0060  68.5120 0095040 175.0228 185.1905 14.56371460510070

Volg COSMOS 2251 DEB in realtime met AllMySat

Download on the App Store